Location: Unspecified
(0.0000°N, 0.0000°E)
Time: 19:33:16
(UTC+00:00)

Vanguard 1 Rocket - Pass Details

Date: 23 April 2026
Orbit: 655 x 4212 km, 34.3° (Epoch: 17 May)

Event Time Altitude Azimuth Distance (km) Brightness Sun altitude
Rises 02:17:03 0° 315° (NW) 8,002 12.1 -53.4°
Reaches altitude 10° 02:24:04 10° 324° (NW) 6,517 11.6 -51.8°
Maximum altitude 02:40:25 35° 23° (NNE) 3,295 10.2 -47.9°
Drops below altitude 10° 02:49:41 10° 86° (E) 3,756 11.1 -45.7°
Sets 02:52:26 0° 95° (E) 4,379 11.6 -45.1°
